Regional Weather Roundup
Issued by NWS Sioux Falls, SD

Home | Current Version | Previous Version | Text Only | Print | Product List | Glossary On
Versions: 1 2 3 4 5 6 7 8 9 10 11 12 13 14 15 16 17 18 19 20 21 22 23 24 25 26 27 28 29 30 31 32 33 34 35 36 37 38 39 40 41 42 43 44 45 46 47 48 49 50
062
ASUS43 KFSD 241210
RWRFSD

WEATHER ROUNDUP FOR SE SOUTH DAKOTA/SW MINNESOTA/NW IOWA
NATIONAL WEATHER SERVICE SIOUX FALLS SD
700 AM CDT MON JUL 24 2017

NOTE: "FAIR" INDICATES FEW OR NO CLOUDS BELOW 12,000 FEET WITH NO
SIGNIFICANT WEATHER AND OR OBSTRUCTIONS TO VISIBILITY.


SDZ038>040-050-052>070-241300-
SOUTHEAST SOUTH DAKOTA

CITY           SKY/WX    TMP DP  RH WIND       PRES   REMARKS
BROOKINGS      CLEAR     59  57  93 SE6       30.04S
CHAMBERLAIN    PTCLDY    63  62  97 E8        29.98S
6HR MIN TEMP:  63; 6HR MAX TEMP:  66;

HURON          PTCLDY    61  59  93 SE8       29.99S
6HR MIN TEMP:  59; 6HR MAX TEMP:  66;

MADISON        FAIR      54  54 100 SE3       30.05S
MITCHELL       PTCLDY    62  60  93 SE6       30.01S
6HR MIN TEMP:  59; 6HR MAX TEMP:  65;

SIOUX FALLS    MOCLDY    59  58  96 CALM      30.04S
6HR MIN TEMP:  54; 6HR MAX TEMP:  62;

WINNER         FAIR      70  57  63 S13       29.97F
YANKTON        CLEAR     60  59  96 E6        30.03S FOG
$$

MNZ071-072-080-081-089-090-097-098-241300-
SOUTHWEST MINNESOTA

CITY           SKY/WX    TMP DP  RH WIND       PRES   REMARKS
FAIRMONT       CLEAR     57  56  96 CALM      30.08R
JACKSON        CLEAR     55  55 100 CALM      30.08R FOG
LUVERNE        PTCLDY    52  50  93 CALM      30.06S FOG
MARSHALL       CLEAR     60  59  96 SE7       30.06R FOG
6HR MIN TEMP:  57; 6HR MAX TEMP:  62;

MONTEVIDEO     CLEAR     59  59 100 S6        30.05S
PIPESTONE      CLEAR     61  57  88 E6        30.05S
REDWOOD FALLS  CLEAR     59  57  93 E5        30.06R
WINDOM         CLEAR     57  55  94 CALM      30.07R FOG
WORTHINGTON    CLEAR     57  56  96 SE3       30.08R FOG
$$

IAZ001>003-012>014-020>022-031-032-NEZ013-014-SDZ071-241300-
NORTHWEST IOWA

CITY           SKY/WX    TMP DP  RH WIND       PRES   REMARKS
CHEROKEE       CLEAR     56  56 100 CALM      30.06R
DENISON        CLEAR     57  57 100 CALM      30.07R FOG
ESTHERVILLE    PTCLDY    56  56 100 CALM      30.06S FOG
ORANGE CITY    CLEAR     61  57  88 CALM      30.06S
SHELDON        CLEAR     55  55 100 CALM      30.05S FOG
SIOUX CITY     PTCLDY    58  58 100 CALM      30.05S
6HR MIN TEMP:  56; 6HR MAX TEMP:  64;

SPENCER        MOCLDY    57  55  93 CALM      30.06S FOG
6HR MIN TEMP:  53; 6HR MAX TEMP:  58;

STORM LAKE     CLEAR     59  57  94 E5        30.06S
$$

ABBREVIATIONS USED IN REMARKS
   TC - TEMPERATURE IN CELSIUS
  WCI - WIND CHILL INDEX
   HX - HEAT INDEX
  VSB - VISIBILITY





USA.gov is the U.S. government's official web portal to all federal, state and local government web resources and services.